Total_Precipitation_Accumulation
0.33 0.42 0.44 0.43 0.49 0.54 0.40 0.24 0.19 0.17 0.14 0.12 0.09 0.06 0.05 0.04 0.02 0.02 0.02 0.02 0.02 0.02 0.03 0.03 0.03 0.06 0.14 0.18 0.18 0.19 0.24 0.26 0.25 0.24 0.29 0.34 0.35 0.44 0.51 0.59 0.64 0.69 0.72 0.79
0.32 0.29 0.27 0.33 0.38 0.43 0.39 0.25 0.17 0.16 0.10 0.05 0.05 0.04 0.03 0.03 0.02 0.01 0.01 0.01 0.02 0.02 0.02 0.02 0.01 0.01 0.02 0.05 0.09 0.13 0.15 0.17 0.17 0.18 0.23 0.32 0.39 0.45 0.58 0.74 0.85 0.87 0.85 0.90
0.28 0.26 0.25 0.28 0.29 0.29 0.21 0.16 0.13 0.14 0.07 0.03 0.04 0.04 0.03 0.03 0.02 0.02 0.02 0.03 0.03 0.03 0.03 0.03 0.02 0.02 0.02 0.02 0.03 0.07 0.11 0.14 0.14 0.22 0.41 0.68 0.92 1.01 1.02 1.04 1.19 1.28 1.24 1.19
0.40 0.28 0.21 0.21 0.22 0.17 0.17 0.09 0.07 0.07 0.06 0.04 0.04 0.04 0.03 0.05 0.06 0.06 0.06 0.07 0.07 0.08 0.07 0.05 0.04 0.03 0.03 0.03 0.03 0.04 0.09 0.15 0.18 0.35 0.68 1.07 1.39 1.48 1.49 1.61 1.65 1.71 1.63 1.50
0.29 0.20 0.15 0.15 0.14 0.12 0.18 0.11 0.06 0.04 0.04 0.05 0.03 0.03 0.04 0.08 0.13 0.16 0.16 0.17 0.18 0.15 0.12 0.08 0.07 0.06 0.08 0.10 0.11 0.14 0.20 0.34 0.50 0.65 0.83 1.13 1.32 1.44 1.58 1.74 1.88 1.99 2.11 2.08
0.21 0.13 0.11 0.12 0.13 0.12 0.14 0.09 0.05 0.03 0.02 0.04 0.03 0.04 0.09 0.16 0.21 0.24 0.25 0.25 0.24 0.19 0.13 0.10 0.10 0.11 0.16 0.24 0.27 0.31 0.41 0.51 0.58 0.70 0.84 0.98 1.07 1.23 1.43 1.58 1.75 1.88 2.00 2.03
0.16 0.11 0.08 0.08 0.12 0.09 0.07 0.06 0.06 0.07 0.07 0.06 0.04 0.07 0.16 0.17 0.17 0.20 0.21 0.18 0.15 0.15 0.15 0.14 0.13 0.19 0.24 0.33 0.37 0.44 0.52 0.62 0.65 0.73 0.83 0.91 0.97 1.10 1.27 1.32 1.36 1.38 1.38 1.42
0.07 0.06 0.05 0.04 0.04 0.04 0.03 0.03 0.08 0.13 0.11 0.08 0.05 0.14 0.24 0.16 0.10 0.08 0.10 0.11 0.12 0.18 0.21 0.20 0.20 0.27 0.33 0.41 0.52 0.60 0.68 0.70 0.72 0.80 0.89 0.90 0.99 1.11 1.20 1.15 1.10 1.12 1.16 1.24
0.04 0.02 0.02 0.01 0.01 0.02 0.02 0.01 0.02 0.04 0.02 0.03 0.06 0.16 0.15 0.07 0.05 0.05 0.09 0.15 0.20 0.27 0.30 0.31 0.33 0.38 0.41 0.50 0.61 0.68 0.73 0.75 0.82 0.86 0.94 1.08 1.12 1.13 1.10 1.00 0.94 0.96 0.92 0.93
0.05 0.02 0.01 0.00 0.01 0.01 0.01 0.02 0.02 0.04 0.04 0.08 0.12 0.16 0.13 0.09 0.10 0.12 0.17 0.24 0.35 0.44 0.45 0.47 0.53 0.56 0.56 0.57 0.65 0.73 0.80 0.87 0.89 0.92 1.02 1.20 1.14 0.91 0.76 0.66 0.70 0.74 0.78 0.82
0.03 0.02 0.01 0.00 0.01 0.03 0.05 0.03 0.02 0.02 0.03 0.14 0.30 0.43 0.46 0.45 0.38 0.42 0.42 0.49 0.63 0.68 0.69 0.69 0.70 0.72 0.66 0.67 0.73 0.78 0.83 0.94 0.97 0.93 1.03 1.06 0.85 0.61 0.49 0.47 0.45 0.44 0.47 0.52
0.01 0.01 0.00 0.00 0.01 0.03 0.07 0.06 0.03 0.05 0.07 0.16 0.34 0.54 0.65 0.70 0.68 0.79 0.85 0.96 0.89 0.83 0.83 0.77 0.70 0.68 0.57 0.58 0.67 0.75 0.84 0.90 0.84 0.80 0.79 0.65 0.47 0.37 0.34 0.30 0.25 0.22 0.22 0.22
0.00 0.00 0.01 0.02 0.02 0.02 0.05 0.04 0.02 0.03 0.10 0.16 0.34 0.58 0.62 0.69 0.79 0.94 1.04 1.04 0.84 0.67 0.57 0.52 0.50 0.44 0.39 0.42 0.48 0.53 0.65 0.71 0.55 0.44 0.42 0.39 0.32 0.30 0.26 0.21 0.19 0.17 0.16 0.16
0.01 0.00 0.01 0.02 0.03 0.02 0.03 0.03 0.02 0.02 0.10 0.18 0.34 0.49 0.52 0.62 0.78 0.87 0.88 0.76 0.54 0.37 0.29 0.23 0.18 0.17 0.19 0.21 0.22 0.20 0.26 0.35 0.31 0.25 0.23 0.22 0.23 0.23 0.23 0.23 0.23 0.18 0.14 0.16
0.01 0.00 0.00 0.00 0.00 0.01 0.01 0.01 0.02 0.03 0.07 0.19 0.29 0.35 0.40 0.42 0.45 0.47 0.48 0.41 0.30 0.19 0.11 0.06 0.06 0.07 0.09 0.09 0.09 0.08 0.07 0.09 0.13 0.15 0.16 0.18 0.18 0.18 0.18 0.20 0.20 0.17 0.14 0.12
0.00 0.00 0.00 0.00 0.00 0.00 0.00 0.01 0.03 0.06 0.10 0.17 0.20 0.22 0.20 0.14 0.11 0.10 0.12 0.13 0.10 0.05 0.02 0.01 0.01 0.01 0.01 0.01 0.01 0.01 0.01 0.01 0.01 0.03 0.05 0.08 0.11 0.13 0.15 0.15 0.15 0.13 0.11 0.09
0.00 0.00 0.00 0.00 0.00 0.00 0.00 0.00 0.03 0.06 0.07 0.09 0.12 0.16 0.15 0.09 0.03 0.01 0.01 0.02 0.02 0.02 0.01 0.00 0.00 0.00 0.00 0.00 0.00 0.00 0.00 0.00 0.00 0.01 0.01 0.02 0.03 0.04 0.05 0.05 0.06 0.05 0.04 0.04
0.00 0.00 0.00 0.00 0.00 0.00 0.00 0.00 0.00 0.01 0.02 0.04 0.05 0.07 0.08 0.04 0.01 0.00 0.00 0.00 0.00 0.00 0.00 0.00 0.00 0.00 0.00 0.00 0.00 0.00 0.00 0.00 0.00 0.00 0.00 0.01 0.01 0.02 0.02 0.02 0.02 0.02 0.02 0.02
0.00 0.00 0.00 0.00 0.00 0.00 0.00 0.00 0.00 0.00 0.00 0.00 0.00 0.01 0.01 0.00 0.00 0.00 0.00 0.00 0.00 0.00 0.00 0.00 0.00 0.00 0.00 0.00 0.00 0.00 0.00 0.00 0.00 0.00 0.00 0.00 0.01 0.01 0.01 0.01 0.01 0.01 0.01 0.02
0.00 0.00 0.00 0.00 0.00 0.00 0.00 0.00 0.00 0.00 0.00 0.00 0.00 0.00 0.00 0.00 0.00 0.00 0.00 0.00 0.00 0.00 0.00 0.00 0.00 0.00 0.00 0.00 0.00 0.00 0.00 0.00 0.00 0.00 0.00 0.00 0.00 0.01 0.01 0.01 0.01 0.01 0.01 0.02
0.00 0.00 0.00 0.00 0.00 0.00 0.00 0.00 0.00 0.00 0.00 0.00 0.00 0.00 0.00 0.00 0.00 0.00 0.00 0.00 0.00 0.00 0.00 0.00 0.00 0.00 0.00 0.00 0.00 0.00 0.00 0.00 0.00 0.00 0.00 0.01 0.01 0.01 0.02 0.03 0.02 0.01 0.02 0.02
0.00 0.00 0.00 0.00 0.00 0.00 0.00 0.00 0.00 0.00 0.00 0.00 0.00 0.00 0.00 0.00 0.00 0.00 0.00 0.00 0.00 0.00 0.00 0.00 0.00 0.00 0.00 0.00 0.00 0.00 0.00 0.00 0.00 0.00 0.01 0.01 0.01 0.01 0.02 0.03 0.02 0.01 0.02 0.02
0.00 0.00 0.00 0.00 0.00 0.00 0.00 0.00 0.00 0.00 0.00 0.00 0.00 0.00 0.00 0.00 0.00 0.00 0.00 0.00 0.00 0.00 0.00 0.00 0.00 0.00 0.00 0.00 0.00 0.00 0.00 0.00 0.00 0.00 0.01 0.01 0.01 0.01 0.01 0.02 0.02 0.01 0.02 0.02
0.00 0.00 0.00 0.00 0.00 0.00 0.00 0.00 0.00 0.00 0.00 0.00 0.00 0.00 0.00 0.00 0.00 0.00 0.00 0.00 0.00 0.00 0.00 0.00 0.00 0.00 0.00 0.00 0.00 0.00 0.00 0.00 0.00 0.00 0.00 0.00 0.01 0.01 0.02 0.01 0.01 0.01 0.02 0.02
0.00 0.00 0.00 0.00 0.00 0.00 0.00 0.00 0.00 0.00 0.00 0.00 0.00 0.00 0.00 0.00 0.00 0.00 0.00 0.00 0.00 0.00 0.00 0.00 0.00 0.00 0.00 0.00 0.00 0.00 0.00 0.00 0.00 0.00 0.00 0.00 0.00 0.01 0.03 0.02 0.01 0.01 0.01 0.01
0.00 0.00 0.00 0.00 0.00 0.00 0.00 0.00 0.00 0.00 0.00 0.00 0.00 0.00 0.00 0.00 0.00 0.00 0.00 0.00 0.00 0.00 0.00 0.00 0.00 0.00 0.00 0.00 0.00 0.00 0.00 0.00 0.00 0.00 0.00 0.00 0.00 0.01 0.01 0.03 0.02 0.01 0.01 0.02